This demonstration page uses our WeatherBlox Daily Observations layout. Learn more.

Left ArrowRight Arrow

34.16533, -84.80231

Hourly Observations for June 29, 2019

Temp ( °F °C ) Dew Point ( °F °C ) Humidity (%) Winds ( mph kmh ) Pressure ( in mb ) Visibility ( mi km ) Precip ( " mm )
12:53 am 00:53 Clear with Mist and Fog 68 20 67 19.4 96 96 Calm 30.14 1021 5 8 0.00 0.00
1:53 am 01:53 Clear 69 20.6 67 19.4 93 93 Calm 30.13 1020 9 14 0.00 0.00
2:53 am 02:53 Clear with Mist and Fog 68 20 67 19.4 96 96 Calm 30.12 1020 6 10 0.00 0.00
4:53 am 04:53 Clear 67 19.4 66 18.9 97 97 SSE 5 7 30.12 1020 9 14 0.00 0.00
5:53 am 05:53 Clear 67 19.4 66 18.9 97 97 Calm 30.13 1020 7 11 0.00 0.00
6:53 am 06:53 Sunny with Mist and Fog 67 19.4 66 18.9 97 97 Calm 30.14 1021 5 8 0.00 0.00
7:53 am 07:53 Sunny 70 21.1 69 20.6 97 97 Calm 30.16 1021 7 11 0.00 0.00
8:53 am 08:53 Sunny 73 22.8 69 20.6 87 87 E 3 6 30.16 1022 10 16 0.00 0.00
9:53 am 09:53 Sunny 78 25.6 70 21.1 76 76 ENE 7 11 30.17 1022 10 16 0.00 0.00
10:53 am 10:53 Sunny 82 27.8 70 21.1 67 67 NE 3 6 30.17 1022 10 16 0.00 0.00
11:53 am 11:53 Mostly Cloudy 85 29.4 71 21.7 63 63 E 8 13 30.16 1021 10 16 0.00 0.00
12:53 pm 12:53 Partly Cloudy 84 28.9 69 20.6 61 61 E 5 7 30.15 1021 10 16 0.00 0.00
1:53 pm 13:53 Mostly Cloudy 85 29.4 69 20.6 59 59 NE 3 6 30.11 1020 10 16 0.00 0.00
3:40 pm 15:40 Mostly Cloudy with Nearby Thunderstorms 85 29.4 68 20 57 57 NNE 6 9 30.07 1018 10 16 0.00 0.00
3:53 pm 15:53 Cloudy with Nearby Thunderstorms 79 26.1 69 20.6 72 72 S 10 17 30.09 1019 9 14 0.00 0.03
4:20 pm 16:20 Cloudy with Thunderstorms 76 24.4 71 21.7 85 85 WSW 6 9 30.10 1019 10 16 0.01 0.25
4:53 pm 16:53 Cloudy with Thunderstorms 73 22.8 70 21.1 90 90 VRB 3 6 30.12 1020 4 6 0.02 0.51
5:53 pm 17:53 Mostly Cloudy with Thunderstorms 71 21.7 69 20.6 94 94 Calm 30.09 1019 9 14 0.04 1.02
6:09 pm 18:09 Mostly Sunny 70 21.1 69 20.6 97 97 Calm 30.09 1019 10 16 0.00 0.03
6:53 pm 18:53 Partly Cloudy 72 22.2 70 21.1 94 94 Calm 30.08 1019 10 16 0.01 0.25
7:53 pm 19:53 Mostly Sunny 73 22.8 71 21.7 94 94 Calm 30.08 1019 8 13 0.00 0.00
8:06 pm 20:06 Mostly Sunny 73 22.8 71 21.7 94 94 Calm 30.08 1019 8 13 0.00 0.00
8:53 pm 20:53 Sunny 71 21.7 70 21.1 96 96 Calm 30.09 1019 8 13 0.00 0.00
9:53 pm 21:53 Clear 71 21.7 70 21.1 96 96 Calm 30.10 1019 7 11 0.00 0.00
10:19 pm 22:19 Mostly Clear 71 21.7 70 21.1 96 96 NNE 5 7 30.12 1020 7 11 0.00 0.00
10:53 pm 22:53 Clear with Mist and Fog 70 21.1 70 21.1 100 100 Calm 30.11 1020 6 10 0.00 0.00
11:53 pm 23:53 Clear with Mist and Fog 70 21.1 69 20.6 97 97 Calm 30.10 1019 6 10 0.00 0.00

Powered by AerisWeather